STARLINK-11735, 64130

Orbit data source: Space-Track

STARLINK-11735, 64130 is a payload satellite owned by SpaceX/Seattle (US) in LEO that was launched on Sat, 24 May 2025 UTC via an FALCON 9 launch vehicle from the Air Force Eastern Test Range (AFETR). Payload-class satellites include a variety of spacecraft equipped with specific instruments for various scientific and technological missions. These include communications satellites like Starlink; space stations such as the ISS; scientific satellites like the Hubble; Earth observation satellites from companies like Planet Labs, Umbra, and HawkEye 360; GPS; miniature CubeSats for education and research; and military/defense satellites.

Loading next visibility...
Identifier
64130, 2025-111H
Orbit
LEO
Country
Flag of USUS
Related business
Manufacturer
SpaceX/Seattle
Mission
Operational Commercial Communications
Bus & Motor
STARLINK V2MD, Unknown motor
Mass
960 kg wet, ~910 kg dry
Launch date (UTC)
2025-05-24 (1 year ago)
Launch vehicle
FALCON 9
Launch site
Air Force Eastern Test Range (AFETR)
Object type
Payload
Rocket body
Debris
Shape & HBR
Box + 2 Pan, 18.1 m
Radar Cross Section
36.964 m², Large (>1 m²)

Expand to show TLE details & history
Last TLE update: 18 hours ago

TLE from 18 hours ago
0 STARLINK-11735
1 64130U 25111H   26171.08899719  .00204181  00000-0  15487-2 0  9995
2 64130  43.0015  76.6392 0003181 253.0261 107.0259 15.70949045 62594
Epoch: 2026-06-20T02:08Z
TLE epoch observation values (Epoch: 2026-06-20T02:08:09.357Z)
Latitude
0.00005°
Longitude
136.29163°
Altitude
356.582 km
Speed
7.697 km/s
True Right ascension
05h 06m 33s
True Declination
0° 00' 00"
Sunlit
Object was in daylight at epoch
Visualization orbit readout
Latitude
Unknown
Longitude
Unknown
Altitude
Unknown
Speed
Unknown
Apparent Right ascension
Unknown
Apparent Declination
Unknown
Sunlit
N/A
Visualization observer readout
Local Sidereal Time
07:14:20
Azimuth
Unknown
Elevation
Unknown
Doppler factor
Unknown
Orbital elements
Apogee altitude
360.308 km
Perigee altitude
356.022 km
Semi-major axis
6,736.302 km
Eccentricity
0.00032
Inclination
43.0015°
RAAN
76.6392°
Arg. of periapsis
253.0261°
True anomaly
107.06075°
Mean anomaly
107.0259°
Eccentric anomaly
107.04333°
Mean motion
3.92564 °/min
Orbital period
91.7 mins
BSTAR
0.0015487
Loading maneuver chart data...
Computing Atmospheric mass density...
Loading historical data...
Loading historical data...
Loading historical data...
Loading historical data...
Loading historical data...
Loading historical data...
Loading historical data...

Documentation

Showing up to 5 results
|